Wind_Speed
1 1 1 2 2 2 2 2 1 2 1 1 1 1 2 2 3 4 3 3 3 3 4 4 4 4 4 4 4 4 4 4 4 4 4 4 4 4 4 4 5 6 7
2 2 2 3 3 3 2 2 2 2 2 2 3 3 3 3 4 5 4 4 5 5 5 5 6 6 6 6 6 6 6 5 5 5 5 5 5 5 5 5 6 7 8
3 3 3 4 4 4 3 3 3 3 2 3 3 4 4 4 5 5 5 6 6 6 6 6 6 7 7 7 7 6 6 6 6 6 7 7 7 7 7 7 7 7 8
4 4 4 4 5 4 4 4 4 4 4 4 5 4 5 5 5 6 6 6 6 7 7 7 8 8 8 8 8 8 8 8 8 8 9 9 9 9 9 8 8 8 9
5 5 5 5 5 5 5 5 5 6 6 6 6 6 6 6 6 6 7 7 7 7 8 8 8 8 8 9 9 9 9 9 10 10 10 10 10 10 10 9 9 9 9
5 5 5 5 5 6 6 6 6 6 7 7 7 7 7 6 7 7 7 7 7 8 8 8 9 8 9 9 10 10 11 10 10 10 10 10 11 11 11 11 11 11 11
6 6 6 6 5 6 6 7 7 7 7 7 8 8 7 8 8 8 8 8 8 9 9 9 9 10 10 10 10 11 11 11 11 11 11 11 11 12 12 12 12 12 12
6 6 6 6 6 6 7 8 8 8 8 8 8 9 9 9 9 9 9 9 9 9 9 9 10 10 10 10 11 11 11 11 12 12 12 12 12 12 13 13 13 13 13
6 6 7 7 7 7 8 8 8 8 9 9 9 9 9 10 10 10 9 9 9 9 10 10 10 11 11 11 11 11 12 12 12 12 12 12 12 12 13 13 14 14 14
7 7 7 7 8 8 9 9 9 9 9 9 9 10 10 10 10 9 9 9 9 10 10 11 11 11 12 12 12 12 12 12 12 12 12 12 13 13 13 13 14 14 14
8 8 8 8 8 8 8 9 9 9 9 9 9 10 10 10 10 10 10 10 10 10 10 11 11 11 12 12 12 12 13 13 12 12 12 12 13 13 13 14 14 14 14
7 7 7 7 8 8 9 9 9 9 9 9 9 10 9 9 9 10 10 10 10 10 11 11 11 11 12 12 12 12 13 13 13 13 13 13 13 13 13 14 14 14 14
7 7 7 7 8 8 8 8 9 9 9 9 9 9 9 10 10 10 10 10 10 10 11 11 12 12 12 12 13 13 13 14 14 14 14 14 14 14 13 13 14 14 14
8 8 8 8 8 9 9 9 9 9 9 10 10 10 10 10 10 10 10 10 10 10 11 11 12 12 12 13 13 13 13 14 15 15 14 14 14 14 14 14 14 14 15
9 9 9 9 9 9 9 9 9 9 9 9 9 9 10 10 10 10 11 10 10 10 11 12 12 12 12 13 13 13 13 14 14 14 14 13 14 14 14 14 14 14 15
9 9 9 9 9 10 9 9 9 9 9 9 10 9 9 10 10 11 11 11 11 11 11 12 12 12 12 12 12 13 14 14 14 14 14 14 14 14 14 15 15 15 15
9 10 10 9 9 9 9 9 9 9 9 9 10 10 10 11 10 11 11 11 11 11 11 11 12 12 12 12 13 14 14 13 14 13 13 14 14 14 14 15 15 15 15
9 10 10 10 9 9 9 9 9 10 10 10 10 10 10 10 10 11 11 11 11 12 11 11 12 12 13 13 13 14 13 13 13 13 14 14 14 14 14 15 15 15 15
10 11 11 10 10 9 9 9 9 10 10 10 10 10 10 10 10 11 11 12 12 12 12 12 13 13 13 14 14 14 14 14 14 15 15 15 15 15 15 15 15 15 16
12 12 11 11 10 10 10 10 9 10 10 10 10 10 11 11 11 11 11 12 11 12 13 13 14 14 14 14 14 14 15 15 15 15 15 16 16 15 15 15 15 16 16
12 12 12 12 11 11 10 10 10 10 11 11 11 10 11 11 11 11 12 12 12 13 13 14 14 14 14 14 14 15 16 16 16 16 16 17 17 17 16 16 16 16 17
12 13 12 11 11 11 11 11 11 11 11 11 12 11 11 12 11 11 12 12 13 13 14 14 14 14 15 14 14 15 16 16 16 17 17 17 17 17 17 17 17 17 18
12 12 12 12 12 12 12 12 12 12 12 12 12 12 12 12 12 12 13 13 13 14 14 14 15 14 15 15 15 15 16 16 17 17 17 17 17 17 18 18 18 18 18
12 12 12 12 13 12 12 12 11 12 12 12 12 12 12 12 13 13 14 14 14 14 14 15 15 15 15 15 16 16 16 16 16 16 17 17 17 17 17 18 17 18 18
14 13 13 13 13 13 13 13 12 12 12 12 12 13 12 13 13 13 14 14 15 15 15 15 15 15 15 16 16 16 16 16 17 17 17 17 17 17 17 18 18 18 18
15 14 15 14 13 14 14 14 14 14 13 13 13 13 13 14 14 14 15 15 15 15 15 16 16 16 16 16 16 16 16 16 17 17 17 17 17 18 18 18 18 19 19
Wind_Direction
281 278 288 299 282 278 286 301 305 307 300 260 262 261 269 274 289 293 295 280 273 277 275 274 274 276 274 268 266 269 270 264 265 270 277 274 268 258 250 255 249 243 240
275 272 282 282 288 285 286 296 285 282 285 268 263 269 275 283 290 285 284 281 278 276 275 270 272 275 274 267 263 264 265 269 266 265 268 268 264 257 253 252 251 245 244
276 279 282 283 282 281 280 283 283 275 278 285 275 269 275 281 281 283 287 284 278 274 275 269 271 273 270 265 260 261 263 265 262 259 263 263 260 257 253 255 255 250 247
280 281 284 285 278 280 279 276 274 271 275 282 282 284 283 278 279 288 288 283 281 278 275 270 271 273 270 262 258 259 262 262 261 259 258 260 259 257 255 261 261 258 253
275 277 284 280 278 279 275 276 276 273 271 275 279 286 285 282 280 283 283 281 279 278 277 275 271 273 270 263 262 261 263 264 263 257 256 258 258 257 256 259 261 260 256
276 278 283 282 278 276 277 277 275 274 269 270 275 279 280 280 281 283 284 283 280 277 275 275 274 271 272 269 269 266 264 264 263 260 258 257 257 256 257 257 258 259 258
278 276 278 284 281 277 280 280 276 276 276 276 277 277 279 280 282 284 283 282 281 281 277 275 272 270 273 273 270 265 262 262 261 260 258 257 256 257 257 258 258 259 259
275 275 276 283 286 284 283 283 282 279 279 279 278 279 279 279 279 282 283 283 281 279 275 273 273 272 273 272 269 267 264 263 261 261 261 260 258 257 258 258 258 259 258
272 276 278 285 283 281 283 283 282 280 279 277 276 279 280 280 277 279 281 280 278 275 272 272 273 273 273 273 267 266 266 266 263 262 261 260 261 262 262 261 260 260 258
271 274 278 285 284 282 283 280 278 277 277 278 279 279 279 278 277 277 279 278 279 277 274 274 274 275 276 272 269 267 266 266 265 263 261 261 261 261 261 261 261 259 258
268 271 277 280 282 284 283 281 279 276 275 276 278 278 277 276 275 275 277 280 279 276 275 276 277 278 277 274 270 268 266 266 264 263 262 260 262 263 262 261 259 257 256
270 270 276 279 281 284 283 281 279 274 273 274 276 276 277 276 275 274 277 280 280 279 278 278 279 277 277 276 272 268 267 267 264 262 261 261 262 265 265 262 258 255 255
273 274 275 280 282 283 285 281 278 276 273 273 274 274 275 274 273 275 277 278 278 280 280 280 280 278 275 274 272 270 268 266 263 261 260 260 262 264 264 262 259 257 257
274 277 278 280 284 286 285 282 280 277 274 273 270 271 272 273 275 274 276 277 277 280 282 282 282 280 277 275 274 272 269 266 264 262 261 263 262 262 262 261 260 260 260
275 276 279 279 282 286 285 285 284 281 276 274 272 270 271 275 278 279 277 278 278 280 283 284 285 285 280 276 273 271 269 267 267 264 263 264 263 262 261 259 257 259 259
275 276 280 278 279 282 280 282 284 279 274 272 272 272 275 278 279 281 280 279 278 279 281 283 285 286 284 281 277 272 270 269 267 265 265 264 263 263 261 258 256 257 257
280 281 282 281 279 281 278 280 282 279 276 275 273 273 275 277 279 280 281 279 279 279 283 282 285 285 285 283 278 273 269 269 265 265 265 265 264 263 262 261 258 256 256
279 282 284 284 280 278 277 277 279 279 279 277 272 272 275 279 279 280 278 275 278 280 283 286 284 284 284 284 279 273 269 270 269 268 267 267 265 263 262 261 258 255 255
278 281 282 283 278 275 274 276 276 279 282 283 279 275 275 279 280 279 280 276 276 281 285 288 286 285 285 283 280 274 271 271 272 271 269 268 267 264 262 263 259 257 256
276 279 280 278 275 274 272 271 272 276 281 283 282 280 277 276 278 278 277 275 276 281 286 287 287 288 289 283 278 275 272 270 271 271 271 270 268 264 263 263 261 259 257
274 276 275 273 271 272 272 271 272 274 277 280 280 278 278 278 277 277 278 277 278 282 285 287 288 289 287 287 280 277 272 271 273 273 273 270 267 265 263 263 262 259 258
270 272 272 271 270 269 269 269 272 273 275 277 279 278 277 276 276 279 281 281 283 284 286 286 286 287 287 285 283 281 277 275 274 274 272 269 266 264 263 263 261 259 258
269 268 270 273 269 270 267 267 268 271 274 274 277 277 277 276 276 278 280 282 287 288 287 287 286 287 288 288 287 285 282 278 276 276 273 270 267 264 263 261 261 262 262
267 267 270 271 270 270 269 268 270 271 272 273 276 278 278 278 276 276 279 283 285 287 288 288 288 288 288 288 290 290 288 284 281 276 274 273 270 266 263 261 260 260 260
265 267 269 270 269 271 271 270 271 271 272 273 275 275 277 278 276 277 281 284 284 286 287 288 289 289 289 289 289 289 288 284 282 280 277 276 273 269 266 264 261 260 259
267 268 268 267 270 272 273 271 268 268 269 272 274 275 276 276 276 278 282 283 283 285 287 288 288 288 289 290 289 287 284 282 282 280 277 276 274 271 269 266 262 261 261
Height
5861 5861 5861 5861 5861 5861 5861 5861 5861 5861 5861 5861 5862 5863 5863 5864 5864 5865 5865 5866 5866 5867 5867 5868 5868 5869 5869 5870 5870 5870 5871 5871 5871 5872 5872 5873 5873 5874 5874 5874 5875 5875 5876
5861 5861 5861 5861 5861 5861 5861 5861 5861 5861 5861 5861 5861 5862 5862 5863 5864 5864 5865 5865 5866 5866 5867 5867 5868 5868 5868 5869 5869 5870 5870 5870 5871 5871 5872 5872 5873 5873 5873 5873 5874 5874 5875
5860 5860 5861 5861 5861 5860 5860 5860 5860 5860 5860 5860 5861 5861 5862 5862 5863 5863 5864 5864 5865 5865 5865 5866 5867 5867 5867 5867 5868 5868 5869 5869 5869 5870 5870 5871 5871 5872 5872 5872 5873 5873 5874
5860 5860 5860 5860 5860 5860 5860 5859 5859 5859 5859 5860 5860 5860 5861 5861 5862 5862 5862 5863 5863 5864 5864 5864 5865 5865 5865 5866 5866 5867 5867 5868 5868 5868 5869 5869 5870 5870 5870 5871 5871 5871 5872
5859 5859 5859 5859 5859 5859 5859 5859 5859 5859 5859 5859 5859 5859 5860 5860 5860 5861 5861 5861 5862 5862 5862 5863 5863 5863 5864 5864 5865 5865 5865 5866 5866 5866 5867 5868 5868 5868 5869 5869 5869 5870 5870
5858 5858 5858 5858 5858 5858 5857 5857 5857 5857 5858 5858 5858 5858 5858 5859 5859 5859 5859 5860 5860 5860 5861 5861 5861 5862 5862 5862 5862 5863 5863 5863 5864 5864 5865 5865 5866 5866 5867 5867 5867 5867 5868
5857 5857 5857 5857 5857 5856 5856 5856 5856 5856 5856 5856 5856 5857 5857 5857 5857 5857 5858 5858 5858 5858 5859 5859 5859 5860 5860 5860 5860 5860 5861 5861 5862 5862 5863 5863 5863 5864 5864 5865 5865 5865 5866
5856 5856 5856 5855 5855 5855 5855 5855 5855 5855 5855 5855 5855 5855 5855 5855 5855 5856 5856 5856 5856 5856 5857 5857 5857 5857 5857 5858 5858 5858 5858 5859 5859 5860 5860 5860 5861 5861 5861 5862 5862 5863 5863
5855 5855 5854 5854 5854 5854 5853 5853 5853 5853 5853 5853 5853 5853 5853 5853 5853 5854 5854 5854 5854 5854 5854 5855 5855 5855 5855 5855 5856 5856 5856 5857 5857 5857 5857 5858 5858 5858 5859 5859 5860 5860 5861
5853 5853 5853 5852 5852 5852 5852 5852 5851 5851 5851 5851 5851 5851 5851 5851 5851 5852 5852 5852 5852 5852 5852 5852 5852 5853 5853 5853 5853 5853 5854 5854 5854 5855 5855 5855 5855 5856 5856 5856 5857 5857 5858
5851 5851 5851 5851 5850 5850 5850 5850 5849 5849 5849 5849 5849 5849 5849 5849 5850 5850 5850 5850 5850 5850 5850 5850 5850 5850 5850 5850 5850 5850 5851 5851 5851 5852 5852 5852 5853 5853 5853 5854 5854 5854 5855
5849 5849 5849 5849 5848 5848 5848 5848 5847 5847 5847 5847 5847 5847 5847 5847 5847 5847 5847 5847 5847 5847 5847 5847 5847 5847 5847 5847 5847 5847 5848 5848 5848 5849 5849 5849 5850 5850 5850 5851 5851 5851 5852
5848 5847 5847 5847 5847 5846 5846 5845 5845 5845 5845 5845 5845 5845 5845 5845 5845 5845 5845 5845 5845 5845 5845 5844 5844 5844 5844 5844 5844 5844 5844 5845 5845 5845 5846 5846 5846 5847 5847 5848 5848 5848 5849
5846 5845 5845 5845 5845 5844 5844 5843 5843 5843 5843 5843 5843 5843 5843 5843 5843 5843 5843 5843 5843 5842 5842 5842 5841 5841 5841 5841 5841 5841 5841 5841 5842 5842 5843 5843 5843 5844 5844 5844 5845 5845 5846
5844 5844 5843 5843 5843 5842 5842 5841 5841 5841 5841 5841 5841 5841 5841 5841 5841 5840 5840 5840 5840 5840 5839 5839 5839 5838 5838 5838 5838 5838 5838 5838 5838 5839 5839 5839 5840 5840 5840 5841 5841 5842 5842
5841 5841 5841 5841 5840 5840 5840 5839 5839 5839 5839 5838 5838 5838 5838 5838 5838 5838 5838 5838 5837 5837 5837 5836 5836 5835 5835 5835 5834 5834 5834 5834 5835 5835 5835 5836 5836 5836 5837 5837 5838 5838 5839
5839 5839 5839 5838 5838 5838 5838 5837 5837 5837 5836 5836 5836 5836 5836 5836 5836 5835 5835 5835 5835 5834 5834 5833 5833 5832 5832 5831 5831 5831 5831 5831 5831 5831 5832 5832 5832 5833 5833 5833 5834 5835 5835
5837 5837 5836 5836 5836 5835 5835 5835 5835 5834 5834 5834 5834 5834 5834 5833 5833 5833 5832 5832 5832 5831 5831 5830 5830 5829 5829 5828 5828 5827 5827 5827 5828 5828 5828 5828 5828 5829 5829 5830 5830 5831 5832
5834 5834 5834 5834 5833 5833 5833 5833 5832 5832 5832 5832 5831 5831 5831 5831 5830 5830 5830 5829 5829 5828 5828 5827 5827 5826 5825 5825 5824 5824 5824 5824 5824 5824 5824 5824 5825 5825 5826 5826 5826 5827 5828
5832 5832 5831 5831 5831 5831 5831 5830 5830 5830 5829 5829 5829 5828 5828 5828 5827 5827 5827 5826 5826 5825 5825 5824 5823 5823 5822 5821 5820 5820 5820 5820 5820 5820 5820 5820 5821 5821 5822 5822 5823 5823 5824
5829 5829 5829 5829 5829 5828 5828 5828 5828 5827 5827 5827 5826 5826 5825 5825 5824 5824 5824 5823 5823 5822 5822 5821 5820 5819 5818 5818 5817 5817 5816 5816 5816 5816 5816 5816 5816 5817 5817 5818 5818 5819 5819
5826 5826 5826 5825 5825 5825 5825 5825 5825 5825 5824 5824 5823 5823 5822 5822 5821 5821 5821 5820 5820 5819 5818 5817 5817 5816 5815 5814 5814 5813 5812 5813 5811 5812 5812 5812 5812 5812 5813 5813 5814 5814 5815
5823 5823 5823 5822 5822 5822 5822 5821 5821 5821 5821 5821 5821 5820 5819 5819 5818 5818 5818 5817 5816 5816 5815 5814 5813 5812 5811 5811 5810 5809 5808 5808 5807 5807 5807 5807 5807 5807 5808 5809 5809 5809 5810
5819 5819 5819 5819 5819 5818 5818 5818 5818 5818 5818 5818 5817 5817 5817 5816 5815 5815 5814 5814 5813 5812 5811 5810 5809 5809 5808 5807 5806 5804 5804 5803 5803 5803 5803 5802 5802 5802 5803 5804 5804 5805 5805
5816 5816 5816 5816 5815 5815 5815 5815 5815 5815 5815 5814 5814 5814 5813 5813 5812 5811 5811 5810 5809 5808 5808 5807 5806 5805 5804 5803 5802 5800 5799 5799 5798 5798 5798 5798 5798 5798 5798 5798 5799 5800 5801
5812 5812 5812 5812 5812 5811 5811 5811 5811 5811 5811 5811 5810 5810 5809 5809 5808 5808 5807 5806 5805 5805 5804 5803 5802 5801 5800 5798 5797 5796 5795 5794 5794 5793 5793 5793 5793 5793 5793 5793 5794 5795 5795